Flag for Canada

Past Weather in Halifax, Nova Scotia, Canada — Yesterday and Last 2 Weeks

Now
63 °F

Low clouds.


Feels Like: 63 °F
Forecast: 62 / 57 °F
Wind: 14 mph from Southwest

Location: Halifax International Airport
Current Time: Oct 20, 2020 at 3:15:52 pm
Latest Report: Oct 20, 2020 at 2:24 pm
Visibility: 10 mi
Pressure30.24 "Hg
Humidity: 100%
Dew Point: 63 °F
Location of HalifaxLocation

Past Weather in Halifax — Graph

°F

Halifax Temperature Yesterday

Maximum temperature yesterday: 55 °F (at 7:00 pm)
Minimum temperature yesterday: 41 °F (at 2:00 am)
Average temperature yesterday: 49 °F

High & Low Weather Summary for the Past Weeks

 TemperatureHumidityPressure
High64 °F (Oct 16, 1:00 pm)100% (Oct 5, 7:00 pm)30.56 "Hg (Oct 5, 7:00 pm)
Low32 °F (Oct 12, 2:00 am)41% (Oct 18, 4:00 pm)29.15 "Hg (Oct 8, 4:06 am)
Average52 °F88%30.02 "Hg
* Reported Oct 5 2:00 pm — Oct 20 2:24 pm, Halifax. Weather by CustomWeather, © 2020

Note: Actual official high and low records may vary slightly from our data, if they occured in-between our weather recording intervals... More about our weather records

Halifax Weather History for the Previous 24 Hours

Scroll right to see more
 ConditionsComfort  
Time TempWeatherWind HumidityBarometerVisibility
2:24 pm
Tue, Oct 20
63 °FLow clouds.14 mph100%30.24 "Hg10 mi
2:00 pm63 °FFog.14 mph100%30.25 "Hg3 mi
1:32 pm63 °FLow clouds.14 mph100%30.27 "Hg10 mi
1:00 pm64 °FLow clouds.17 mph94%30.27 "Hg12 mi
12:00 pm63 °FMostly cloudy.12 mph100%30.28 "Hg12 mi
11:11 am63 °FMostly cloudy.10 mph100%30.29 "Hg8 mi
10:11 am61 °FFog.13 mph100%30.30 "Hg1 mi
9:49 am61 °FFog.9 mph100%30.30 "Hg1 mi
5:00 am59 °FFog.10 mph100%30.31 "Hg1 mi
4:37 am59 °FFog.9 mph100%30.32 "Hg1 mi
4:18 am59 °FFog.10 mph100%30.32 "Hg2 mi
4:00 am59 °FFog.7 mph100%30.32 "Hg1 mi
3:53 am59 °FFog.9 mph100%30.32 "Hg1 mi
3:37 am59 °FFog.9 mph100%30.33 "Hg1 mi
3:00 am59 °FFog.9 mph100%30.34 "Hg1 mi
2:34 am59 °FFog.9 mph100%30.34 "Hg1 mi
2:23 am59 °FFog.13 mph100%30.34 "Hg1 mi
2:00 am59 °FFog.10 mph100%30.34 "Hg0 mi
1:00 am57 °FFog.8 mph100%30.35 "Hg0 mi
12:00 am57 °FFog.8 mph100%30.36 "Hg0 mi
11:00 pm
Mon, Oct 19
55 °FFog.6 mph100%30.37 "Hg0 mi
10:00 pm55 °FFog.6 mph100%30.37 "Hg0 mi
9:45 pm55 °FFog.8 mph100%30.37 "Hg0 mi
9:00 pm55 °FFog.7 mph100%30.37 "Hg1 mi
8:38 pm55 °FFog.8 mph100%30.38 "Hg1 mi
8:00 pm55 °FDrizzle. Low clouds.8 mph100%30.38 "Hg8 mi
7:00 pm55 °FLow clouds.6 mph100%30.40 "Hg15 mi
Weather by CustomWeather, © 2020

See weather overview